Home   Weather   Zaragoza   Past weeks

Flag for Spain Past Weather in Zaragoza, Spain — Yesterday and Last 2 Weeks

Now
75 °F

Passing clouds.


Feels Like: 76 °F
Forecast: 52 / 72 °F
Wind: 8 mph from East

Location: Zaragoza / Aeropuerto

Current Time: Apr 24, 2017 at 9:32:35 pm

Latest Report: Apr 24, 2017 at 9:00 pm


Visibility: N/A

Pressure: 29.86 "Hg

Humidity: 24%

Dew Point: 36 °F

Location of ZaragozaLocation

Past Weather in Zaragoza — Graph

°F

Zaragoza Temperature Yesterday

Maximum temperature yesterday: 79 °F (at 6:30 pm)
Minimum temperature yesterday: 45 °F (at 7:00 am)
Average temperature yesterday: 62 °F

High & Low Weather Summary for the Past Weeks

 TemperatureHumidityPressure
High82 °F (Apr 24, 5:00 pm)87% (Apr 10, 7:00 am)30.36 "Hg (Apr 10, 7:00 am)
Low43 °F (Apr 21, 8:00 am)10% (Apr 22, 6:30 pm)29.86 "Hg (Apr 24, 5:00 pm)
Average62 °F48%30.12 "Hg
* Reported Apr 9 8:00 pm — Apr 24 8:00 pm, Zaragoza, Weather by CustomWeather, © 2017

Note: Actual official high and low records may vary slightly from our data, if they occured in-between our weather recording intervals... More about our weather records

Advertising

Zaragoza Weather History for the Previous 24 Hours

Scroll right to see more
 ConditionsComfort  
Time TempWeatherWind HumidityBarometerVisibility
8:00 pm
Mon, Apr 24
81 °FScattered clouds.3 mph18%29.86 "HgN/A
7:30 pm81 °FScattered clouds.7 mph17%29.86 "HgN/A
7:00 pm81 °FScattered clouds.9 mph17%29.86 "HgN/A
6:30 pm81 °FScattered clouds.9 mph18%29.86 "HgN/A
6:00 pm81 °FScattered clouds.8 mph20%29.86 "HgN/A
5:30 pm82 °FPassing clouds.8 mph17%29.86 "HgN/A
5:00 pm82 °FPassing clouds.8 mph17%29.86 "HgN/A
4:30 pm81 °FPassing clouds.9 mph17%29.89 "HgN/A
4:00 pm81 °FPassing clouds.9 mph18%29.89 "HgN/A
3:30 pm79 °FPassing clouds.9 mph18%29.92 "HgN/A
3:00 pm79 °FPassing clouds.9 mph20%29.92 "HgN/A
2:30 pm77 °FPassing clouds.9 mph19%29.92 "HgN/A
2:00 pm75 °FPassing clouds.10 mph21%29.95 "HgN/A
1:30 pm73 °FPassing clouds.10 mph22%29.98 "HgN/A
1:00 pm72 °FPassing clouds.10 mph23%29.98 "HgN/A
12:30 pm70 °FPassing clouds.8 mph29%29.98 "HgN/A
12:00 pm68 °FPassing clouds.7 mph33%30.01 "HgN/A
11:30 am66 °FPassing clouds.7 mph32%30.01 "HgN/A
11:00 am63 °FPassing clouds.6 mph39%30.01 "HgN/A
10:30 am61 °FPassing clouds.5 mph42%30.01 "HgN/A
10:00 am59 °FPassing clouds.5 mph48%30.01 "HgN/A
9:30 am57 °FPassing clouds.6 mph51%30.01 "HgN/A
9:00 am55 °FPassing clouds.5 mph51%30.01 "HgN/A
8:30 am54 °FPassing clouds.1 mph54%30.01 "HgN/A
8:00 am48 °FPassing clouds.No wind62%30.01 "HgN/A
7:30 am48 °FPassing clouds.2 mph62%30.01 "HgN/A
7:00 am46 °FClear.2 mph66%30.01 "Hg10 mi
6:30 am50 °FClear.1 mph58%30.01 "Hg10 mi
6:00 am52 °FClear.3 mph54%30.01 "Hg10 mi
5:30 am52 °FClear.3 mph54%30.01 "Hg10 mi
4:30 am54 °FClear.3 mph51%30.01 "Hg10 mi
4:00 am54 °FClear.5 mph51%30.01 "Hg10 mi
3:30 am54 °FClear.6 mph51%30.01 "Hg10 mi
3:00 am54 °FClear.5 mph47%30.01 "Hg10 mi
2:30 am54 °FClear.5 mph47%30.01 "Hg10 mi
2:00 am55 °FClear.No wind44%30.01 "Hg10 mi
1:30 am61 °FClear.7 mph36%30.01 "Hg10 mi
1:00 am61 °FClear.7 mph34%30.01 "Hg10 mi
12:30 am61 °FClear.3 mph31%30.01 "Hg10 mi
12:00 am61 °FClear.3 mph34%30.01 "Hg10 mi
11:30 pm
Sun, Apr 23
61 °FClear.6 mph34%30.01 "Hg10 mi
10:30 pm64 °FClear.2 mph28%29.98 "Hg10 mi
10:00 pm64 °FPassing clouds.5 mph28%29.98 "HgN/A
9:30 pm66 °FPassing clouds.5 mph28%29.98 "HgN/A
9:00 pm73 °FPassing clouds.5 mph22%29.98 "HgN/A
Weather by CustomWeather, © 2017

See weather overviewHow to use our weather pages